KE5BCK Weather Reports


time (UTC)temp
F
wind
direction
speed
knots
gust
knots
rain 1hr
in
rain 24hr
in
rain mn
in
humidity
%
barometer
mb
20260510071553 71 196 0.9 3.5 0.00 0.02 0.00 76 1011.5
20260510070152 71 150 0.9 5.2 0.00 0.02 0.00 75 1011.5
20260510064557 72 147 0.9 6.1 0.00 0.02 0.00 74 1011.5
20260510063053 72 166 0.9 6.1 0.00 0.02 0.00 73 1011.5
20260510061550 72 145 0.9 3.5 0.00 0.02 0.00 72 1011.3
20260510060147 73 123 0.0 3.5 0.00 0.02 0.00 71 1011.3
20260510054546 72 145 0.9 5.2 0.00 0.02 0.02 72 1011.2
20260510053045 72 150 0.9 3.5 0.00 0.02 0.02 75 1011.2
20260510051547 72 109 0.0 1.7 0.00 0.02 0.02 76 1011.3
20260510050144 72 106 0.0 1.7 0.00 0.02 0.02 77 1011.3
20260510044543 72 101 0.0 3.5 0.00 0.02 0.02 78 1011.1
20260510043041 73 157 0.0 0.0 0.00 0.02 0.02 77 1011.2
20260510041540 73 157 0.0 0.0 0.00 0.02 0.02 76 1011.0
20260510040142 74 157 0.0 0.0 0.00 0.02 0.02 76 1011.0
20260510034536 75 157 0.0 1.7 0.00 0.02 0.02 75 1010.9
20260510033043 75 160 0.0 0.0 0.00 0.02 0.02 75 1010.7
20260510031535 76 160 0.0 0.9 0.00 0.02 0.02 73 1010.5
20260510030135 78 160 0.0 1.7 0.00 0.02 0.02 72 1010.4
20260510024548 79 163 0.0 2.6 0.00 0.02 0.02 71 1010.2
20260510023048 79 149 0.9 7.8 0.00 0.02 0.02 71 1009.9
20260510021547 79 148 0.0 6.1 0.00 0.02 0.02 70 1009.6
20260510020146 79 215 0.9 4.3 0.00 0.02 0.02 68 1009.6
20260510014545 80 150 0.0 1.7 0.00 0.02 0.02 66 1009.4
20260510013043 81 155 1.7 4.3 0.00 0.02 0.02 64 1009.3
20260510011543 82 120 1.7 5.2 0.00 0.02 0.02 61 1009.1
20260510010142 82 112 2.6 6.1 0.00 0.02 0.02 58 1009.2
20260510004539 83 123 0.9 6.1 0.00 0.02 0.02 59 1009.0
20260510003054 84 149 0.9 4.3 0.00 0.02 0.02 57 1008.8
20260510001538 85 117 0.9 3.5 0.00 0.02 0.02 53 1008.7
20260510000139 86 139 0.9 6.1 0.00 0.02 0.02 49 1008.7
20260509234542 87 105 0.0 3.5 0.00 0.02 0.02 45 1008.6
20260509233037 88 107 0.9 5.2 0.00 0.02 0.02 44 1008.5
20260509231534 88 138 0.9 6.1 0.00 0.02 0.02 43 1008.5
20260509230134 88 88 0.9 7.0 0.00 0.02 0.02 41 1008.5
20260509224600 89 101 0.9 6.1 0.00 0.02 0.02 44 1008.6
20260509223101 89 140 0.0 6.1 0.00 0.02 0.02 43 1008.6
20260509221551 89 105 0.9 6.1 0.00 0.02 0.02 43 1008.4
20260509220149 89 86 0.0 6.1 0.00 0.02 0.02 42 1008.4
20260509214552 89 97 2.6 8.7 0.00 0.02 0.02 44 1008.5
20260509213051 90 148 1.7 9.6 0.00 0.02 0.02 43 1008.7
20260509211547 90 132 3.5 9.6 0.00 0.02 0.02 39 1008.9
20260509210149 90 120 0.9 3.5 0.00 0.02 0.02 38 1009.1
20260509204554 89 79 0.0 3.5 0.00 0.02 0.02 37 1009.1
20260509203056 88 111 1.7 8.7 0.00 0.02 0.02 39 1009.2
20260509201544 85 110 3.5 9.6 0.00 0.02 0.02 39 1009.5
20260509200144 82 77 1.7 13.0 0.00 0.02 0.02 46 1010.2
20260509194549 84 63 4.3 11.3 0.00 0.02 0.02 43 1010.3
20260509193048 89 100 0.9 7.0 0.00 0.02 0.02 45 1010.2
20260509191546 90 205 0.9 6.1 0.00 0.02 0.02 50 1010.0
20260509190141 90 159 0.9 7.0 0.00 0.02 0.02 46 1010.0
20260509184548 89 15 1.7 7.0 0.00 0.02 0.02 51 1010.2
20260509183040 87 215 0.9 6.1 0.00 0.02 0.02 57 1010.4
20260509181554 86 360 0.0 5.2 0.00 0.02 0.02 58 1010.6
20260509180137 86 214 1.7 6.1 0.00 0.02 0.02 61 1010.7
20260509174542 85 315 0.0 2.6 0.00 0.02 0.02 66 1010.6
20260509173047 87 171 0.0 2.6 0.00 0.02 0.02 61 1011.3
20260509171549 86 206 0.0 4.3 0.00 0.02 0.02 62 1011.3
20260509170138 85 215 2.6 7.0 0.00 0.02 0.02 68 1011.2
20260509164543 84 317 1.7 6.1 0.00 0.02 0.02 67 1011.2
20260509163040 83 188 0.9 6.1 0.00 0.02 0.02 71 1011.4
20260509161541 81 173 3.5 8.7 0.00 0.02 0.02 73 1011.3
20260509160007 80 230 1.7 7.8 0.00 0.02 0.02 76 1011.5
20260509154502 78 214 2.6 9.6 0.00 0.02 0.02 81 1011.5
20260509153109 76 201 1.7 7.8 0.00 0.02 0.02 84 1011.4
20260509151601 75 174 1.7 6.1 0.00 0.02 0.02 85 1011.2
20260509150152 75 142 0.9 5.2 0.00 0.02 0.02 86 1011.2
20260509144556 74 194 1.7 5.2 0.00 0.02 0.02 86 1010.9
20260509143106 74 172 1.7 7.8 0.00 0.02 0.02 87 1011.1
20260509141551 74 112 0.9 5.2 0.00 0.02 0.02 88 1010.7
20260509140149 73 277 0.9 4.3 0.00 0.02 0.02 90 1010.4
20260509134547 72 107 0.9 6.1 0.00 0.02 0.02 92 1010.5
20260509133057 71 173 0.0 2.6 0.01 0.02 0.02 93 1010.8
20260509131544 71 24 0.0 1.7 0.01 0.02 0.02 92 1011.2
20260509130144 71 24 0.0 1.7 0.01 0.02 0.02 92 1011.5
20260509124549 70 16 0.0 0.0 0.01 0.02 0.02 92 1011.0
20260509123045 70 17 0.0 0.0 0.00 0.01 0.01 92 1010.8
20260509121549 70 17 0.0 0.0 0.00 0.01 0.01 91 1010.8
20260509120141 70 17 0.0 1.7 0.00 0.01 0.01 91 1010.5
20260509114545 71 27 0.0 2.6 0.00 0.01 0.01 92 1011.0
20260509113044 71 325 0.0 2.6 0.00 0.01 0.01 92 1011.3
20260509111542 71 355 0.0 4.3 0.00 0.01 0.01 92 1011.8
20260509110140 71 29 0.0 0.0 0.01 0.01 0.01 91 1011.9
20260509104600 71 34 0.0 0.0 0.01 0.01 0.01 91 1012.2
20260509103042 71 34 0.0 0.0 0.01 0.01 0.01 91 1011.9
20260509101540 71 40 0.0 0.0 0.01 0.01 0.01 92 1011.9
20260509100137 71 49 0.0 0.0 0.00 0.00 0.00 91 1011.3
20260509094537 71 55 0.0 0.0 0.00 0.00 0.00 91 1010.6
20260509093035 71 55 0.0 0.0 0.00 0.00 0.00 91 1010.6
20260509091540 71 55 0.0 0.0 0.00 0.00 0.00 91 1010.3
20260509090133 71 55 0.0 0.0 0.00 0.00 0.00 91 1010.4
20260509084605 71 38 0.0 0.0 0.00 0.00 0.00 91 1010.6
20260509083054 71 134 0.0 0.0 0.00 0.00 0.00 90 1010.9
20260509081555 71 134 0.0 0.9 0.00 0.00 0.00 90 1011.0
20260509080151 71 135 0.0 0.0 0.00 0.00 0.00 90 1010.8
20260509074553 71 139 0.0 0.0 0.00 0.00 0.00 89 1010.9
20260509073053 71 139 0.0 0.0 0.00 0.00 0.00 89 1010.9